Simultaneous Nadir Overpasses (SNOs) Predictions

Prediction of SNOs between FY3D and AQUA Satellite Orbit:

Table of predicted SNOs for the next 14.0 days since TLE Epoch: 5/8/2021
Index Date (FY3D) Time (FY3D) Lat,Lon (FY3D) SZA (FY3D ) Date (AQUA) Time (AQUA) Lat,Lon (AQUA) SZA (AQUA ) Distance(km) Time Diff (sec)
1 05/08/2021 21:32:50 46.08,-128.23 31.47 05/08/2021 21:33:27 46.12,-128.08 31.61 12.05 37
2 05/08/2021 22:24:12 -48.41, 38.14 146.75 05/08/2021 22:23:31 -48.51, 38.64 146.55 38.81 41
3 05/11/2021 13:49:10 46.11, -12.30 30.86 05/11/2021 13:49:56 46.11, -12.20 30.96 7.93 46
4 05/11/2021 14:40:21 -47.81, 154.33 147.86 05/11/2021 14:39:50 -47.90, 154.76 147.68 33.81 31
5 05/14/2021 06:05:29 46.09, 103.65 30.24 05/14/2021 06:06:25 46.10, 103.68 30.35 3.11 56
6 05/14/2021 06:56:30 -47.21, -89.48 148.93 05/14/2021 06:56:09 -47.30, -89.12 148.76 28.76 21
7 05/16/2021 22:22:03 46.94,-140.76 30.30 05/16/2021 22:23:08 46.94,-140.75 30.39 0.27 65
8 05/16/2021 23:12:40 -46.68, 26.68 149.91 05/16/2021 23:12:29 -46.76, 26.96 149.75 23.81 11
9 05/19/2021 14:39:13 49.91, -26.09 32.03 05/19/2021 14:40:26 49.91, -26.07 32.12 1.85 73



Historial Predications of SNOs between FY3D and AQUA
